Total_Precipitation_Accumulation
0.00 0.00 0.00 0.00 0.00 0.00 0.00 0.00 0.00 0.00 0.00 0.00 0.00 0.00 0.00 0.00 0.00 0.00 0.00 0.00 0.00 0.00 0.00 0.00 0.00 0.00 0.00 0.00 0.01 0.00 0.00 0.00 0.00 0.00 0.00 0.00 0.00 0.00 0.00 0.00 0.00 0.00 0.00 0.00
0.00 0.00 0.00 0.00 0.00 0.00 0.00 0.00 0.00 0.00 0.00 0.00 0.00 0.00 0.00 0.00 0.00 0.00 0.00 0.00 0.00 0.00 0.00 0.00 0.00 0.01 0.02 0.02 0.03 0.01 0.00 0.00 0.00 0.00 0.00 0.00 0.00 0.00 0.00 0.00 0.00 0.00 0.00 0.00
0.00 0.00 0.00 0.00 0.00 0.00 0.00 0.00 0.00 0.00 0.00 0.00 0.00 0.00 0.00 0.00 0.00 0.00 0.00 0.00 0.00 0.00 0.00 0.00 0.00 0.00 0.01 0.01 0.00 0.00 0.00 0.00 0.00 0.00 0.00 0.00 0.00 0.00 0.00 0.00 0.00 0.00 0.00 0.00
0.00 0.00 0.00 0.00 0.00 0.01 0.00 0.00 0.00 0.00 0.00 0.00 0.00 0.00 0.00 0.00 0.00 0.00 0.00 0.00 0.00 0.00 0.00 0.00 0.00 0.00 0.00 0.00 0.00 0.00 0.00 0.00 0.00 0.00 0.00 0.00 0.00 0.00 0.00 0.00 0.00 0.00 0.00 0.00
0.00 0.00 0.00 0.00 0.01 0.01 0.01 0.00 0.00 0.00 0.00 0.00 0.00 0.00 0.00 0.00 0.00 0.00 0.00 0.00 0.00 0.00 0.00 0.00 0.00 0.00 0.00 0.00 0.00 0.02 0.01 0.00 0.00 0.00 0.00 0.00 0.00 0.00 0.00 0.00 0.00 0.00 0.00 0.00
0.00 0.00 0.00 0.02 0.01 0.00 0.00 0.00 0.00 0.00 0.00 0.02 0.00 0.00 0.00 0.00 0.00 0.00 0.00 0.00 0.00 0.00 0.00 0.00 0.00 0.00 0.00 0.00 0.01 0.05 0.04 0.02 0.00 0.00 0.00 0.00 0.00 0.00 0.00 0.00 0.00 0.00 0.00 0.00
0.00 0.00 0.00 0.04 0.06 0.01 0.00 0.01 0.02 0.02 0.01 0.01 0.00 0.00 0.00 0.00 0.00 0.00 0.00 0.00 0.00 0.00 0.00 0.00 0.00 0.00 0.00 0.00 0.00 0.02 0.03 0.01 0.00 0.00 0.00 0.00 0.00 0.00 0.00 0.00 0.00 0.00 0.00 0.00
0.00 0.00 0.00 0.04 0.23 0.27 0.02 0.07 0.10 0.06 0.01 0.00 0.00 0.00 0.00 0.00 0.00 0.00 0.00 0.00 0.00 0.00 0.00 0.00 0.00 0.00 0.00 0.00 0.00 0.00 0.00 0.00 0.01 0.00 0.00 0.00 0.00 0.00 0.00 0.00 0.00 0.00 0.00 0.00
0.00 0.00 0.00 0.05 0.20 0.22 0.08 0.12 0.07 0.13 0.02 0.03 0.00 0.00 0.00 0.00 0.00 0.00 0.00 0.00 0.00 0.00 0.00 0.00 0.00 0.00 0.00 0.00 0.00 0.00 0.00 0.00 0.00 0.00 0.01 0.00 0.00 0.00 0.00 0.00 0.00 0.00 0.00 0.00
0.00 0.00 0.00 0.01 0.08 0.10 0.11 0.11 0.13 0.17 0.12 0.07 0.01 0.02 0.02 0.00 0.00 0.00 0.00 0.00 0.00 0.00 0.00 0.00 0.00 0.00 0.00 0.00 0.00 0.00 0.00 0.00 0.00 0.00 0.01 0.02 0.04 0.02 0.00 0.00 0.00 0.00 0.00 0.00
0.00 0.00 0.00 0.00 0.06 0.12 0.06 0.10 0.12 0.11 0.17 0.12 0.15 0.20 0.17 0.07 0.04 0.01 0.00 0.00 0.00 0.00 0.00 0.00 0.00 0.00 0.00 0.00 0.00 0.00 0.00 0.00 0.00 0.00 0.04 0.09 0.07 0.10 0.03 0.00 0.00 0.00 0.00 0.00
0.00 0.00 0.00 0.00 0.02 0.03 0.04 0.11 0.20 0.22 0.12 0.06 0.16 0.35 0.15 0.20 0.08 0.02 0.00 0.00 0.00 0.01 0.02 0.00 0.00 0.00 0.00 0.00 0.00 0.00 0.00 0.00 0.01 0.06 0.17 0.20 0.14 0.09 0.08 0.03 0.00 0.00 0.00 0.00
0.01 0.02 0.00 0.00 0.00 0.01 0.01 0.03 0.10 0.18 0.23 0.13 0.16 0.31 0.18 0.21 0.21 0.10 0.03 0.02 0.02 0.04 0.05 0.04 0.02 0.01 0.01 0.00 0.00 0.01 0.03 0.05 0.12 0.17 0.22 0.25 0.21 0.17 0.10 0.06 0.02 0.00 0.01 0.01
0.00 0.01 0.00 0.00 0.00 0.00 0.00 0.00 0.06 0.26 0.26 0.21 0.19 0.13 0.12 0.13 0.23 0.20 0.12 0.07 0.06 0.06 0.07 0.07 0.08 0.07 0.05 0.04 0.03 0.03 0.05 0.07 0.12 0.20 0.22 0.24 0.24 0.21 0.18 0.12 0.08 0.07 0.07 0.09
0.00 0.00 0.00 0.00 0.00 0.00 0.00 0.02 0.05 0.23 0.34 0.30 0.26 0.16 0.22 0.24 0.22 0.29 0.24 0.13 0.07 0.07 0.05 0.08 0.11 0.15 0.14 0.12 0.08 0.05 0.08 0.07 0.06 0.15 0.20 0.23 0.28 0.24 0.22 0.19 0.18 0.22 0.25 0.24
0.01 0.02 0.01 0.00 0.00 0.00 0.01 0.06 0.04 0.08 0.24 0.24 0.20 0.13 0.25 0.21 0.19 0.19 0.19 0.16 0.13 0.06 0.04 0.06 0.07 0.11 0.15 0.17 0.22 0.19 0.15 0.10 0.04 0.03 0.08 0.19 0.28 0.27 0.18 0.15 0.17 0.16 0.16 0.19
0.04 0.04 0.02 0.01 0.00 0.00 0.04 0.09 0.16 0.14 0.20 0.26 0.32 0.37 0.22 0.20 0.24 0.22 0.18 0.14 0.14 0.09 0.03 0.04 0.04 0.08 0.13 0.15 0.19 0.22 0.23 0.28 0.32 0.22 0.16 0.13 0.10 0.10 0.10 0.09 0.08 0.11 0.09 0.08
0.03 0.02 0.03 0.02 0.00 0.03 0.07 0.03 0.14 0.17 0.08 0.18 0.27 0.28 0.27 0.32 0.26 0.13 0.12 0.15 0.09 0.09 0.03 0.01 0.03 0.04 0.08 0.11 0.11 0.16 0.21 0.22 0.34 0.50 0.47 0.39 0.23 0.14 0.09 0.09 0.08 0.07 0.05 0.04
0.01 0.01 0.01 0.03 0.02 0.01 0.01 0.00 0.02 0.09 0.06 0.08 0.14 0.18 0.19 0.18 0.15 0.05 0.12 0.12 0.06 0.06 0.06 0.01 0.01 0.02 0.03 0.07 0.12 0.11 0.15 0.29 0.28 0.33 0.41 0.44 0.49 0.43 0.34 0.25 0.20 0.19 0.07 0.02
0.00 0.00 0.03 0.03 0.04 0.05 0.05 0.00 0.03 0.10 0.07 0.00 0.05 0.07 0.08 0.10 0.15 0.18 0.18 0.15 0.03 0.03 0.04 0.02 0.01 0.00 0.00 0.00 0.04 0.09 0.10 0.10 0.31 0.39 0.40 0.44 0.34 0.30 0.29 0.33 0.30 0.25 0.15 0.03
0.00 0.00 0.03 0.01 0.10 0.15 0.02 0.00 0.01 0.10 0.07 0.00 0.01 0.02 0.02 0.08 0.24 0.26 0.15 0.07 0.02 0.00 0.01 0.01 0.00 0.00 0.00 0.00 0.00 0.02 0.08 0.15 0.11 0.14 0.34 0.45 0.50 0.37 0.22 0.19 0.18 0.17 0.15 0.08
0.00 0.03 0.04 0.01 0.06 0.13 0.01 0.00 0.06 0.08 0.00 0.00 0.00 0.01 0.01 0.02 0.03 0.06 0.08 0.08 0.04 0.02 0.00 0.00 0.01 0.00 0.00 0.00 0.00 0.00 0.00 0.02 0.03 0.06 0.07 0.15 0.37 0.51 0.46 0.28 0.21 0.15 0.11 0.07
0.01 0.02 0.04 0.05 0.07 0.06 0.01 0.00 0.00 0.00 0.00 0.00 0.00 0.00 0.00 0.00 0.01 0.01 0.02 0.03 0.04 0.04 0.02 0.00 0.00 0.00 0.01 0.00 0.00 0.00 0.00 0.00 0.00 0.00 0.01 0.02 0.03 0.22 0.45 0.45 0.36 0.23 0.09 0.07
0.00 0.00 0.01 0.02 0.01 0.00 0.00 0.00 0.00 0.00 0.00 0.00 0.00 0.00 0.00 0.00 0.00 0.01 0.00 0.01 0.01 0.01 0.00 0.00 0.00 0.00 0.00 0.00 0.00 0.00 0.00 0.00 0.00 0.00 0.00 0.00 0.00 0.01 0.03 0.12 0.15 0.10 0.05 0.06
0.00 0.02 0.02 0.00 0.00 0.00 0.00 0.00 0.00 0.00 0.00 0.00 0.00 0.00 0.00 0.00 0.00 0.00 0.01 0.00 0.00 0.00 0.00 0.00 0.00 0.00 0.00 0.00 0.00 0.00 0.00 0.00 0.00 0.00 0.00 0.00 0.00 0.00 0.00 0.01 0.01 0.01 0.01 0.02
0.00 0.12 0.06 0.01 0.00 0.01 0.00 0.00 0.00 0.00 0.00 0.00 0.00 0.00 0.00 0.00 0.00 0.00 0.00 0.00 0.00 0.00 0.00 0.00 0.00 0.00 0.00 0.00 0.00 0.00 0.00 0.00 0.00 0.00 0.00 0.00 0.00 0.00 0.00 0.00 0.00 0.00 0.00 0.00